Location: Erlenbrunn
(49.1717°N, 7.6142°E)
Time: 05:29:07
(UTC+00:00)

Cosmos 1666 Rocket - Pass Details

Date: 25 November 2020
Orbit: 604 x 633 km, 82.5° (Epoch: 24 January)

Event Time Altitude Azimuth Distance (km) Brightness Sun altitude
Rises 17:31:53 0° 348° (NNW) 2,898 7.0 -18.1°
Reaches altitude 10° 17:34:07 10° 347° (NNW) 1,993 6.2 -18.5°
Maximum altitude 17:38:31 74° 263° (W) 652 3.7 -19.2°
Drops below altitude 10° 17:42:56 10° 179° (S) 1,994 6.2 -19.9°
Sets 17:45:09 0° 177° (S) 2,900 7.1 -20.2°
